owner,sensor,date,latitude,longitude,vertical_datum,wind_speed,wind_to_direction,wind_speed_of_gust,qcFlag 
DISL,ioos:station:DISL:CATA:1,2017-02-01T00:00:00Z,30.3085,-88.1395,0.0,6.57,223.6,-999.0,'1111122,1111122,1111122' 
DISL,ioos:station:DISL:CATA:1,2017-02-01T00:30:00Z,30.3085,-88.1395,0.0,6.58,220.7,-999.0,'1111122,1111122,1111122' 
DISL,ioos:station:DISL:CATA:1,2017-02-01T01:00:00Z,30.3085,-88.1395,0.0,6.1,219.5,-999.0,'1111122,1111122,1111122' 
DISL,ioos:station:DISL:CATA:1,2017-02-01T01:30:00Z,30.3085,-88.1395,0.0,6.65,217.5,-999.0,'1111122,1111122,1111122' 
DISL,ioos:station:DISL:CATA:1,2017-02-01T02:00:00Z,30.3085,-88.1395,0.0,6.97,215.1,-999.0,'1111122,1111122,1111122' 
DISL,ioos:station:DISL:CATA:1,2017-02-01T02:30:00Z,30.3085,-88.1395,0.0,6.07,226.2,-999.0,'1111122,1111122,1111122' 
DISL,ioos:station:DISL:CATA:1,2017-02-01T03:00:00Z,30.3085,-88.1395,0.0,5.73,222.4,-999.0,'1111122,1111122,1111122' 
DISL,ioos:station:DISL:CATA:1,2017-02-01T03:30:00Z,30.3085,-88.1395,0.0,6.1,224.3,-999.0,'1111122,1111122,1111122' 
DISL,ioos:station:DISL:CATA:1,2017-02-01T04:00:00Z,30.3085,-88.1395,0.0,6.62,219.6,-999.0,'1111122,1111122,1111122' 
DISL,ioos:station:DISL:CATA:1,2017-02-01T04:30:00Z,30.3085,-88.1395,0.0,6.52,224.6,-999.0,'1111122,1111122,1111122' 
DISL,ioos:station:DISL:CATA:1,2017-02-01T05:00:00Z,30.3085,-88.1395,0.0,5.84,224.1,-999.0,'1111122,1111122,1111122' 
DISL,ioos:station:DISL:CATA:1,2017-02-01T05:30:00Z,30.3085,-88.1395,0.0,5.63,224.3,-999.0,'1111122,1111122,1111122' 
DISL,ioos:station:DISL:CATA:1,2017-02-01T06:00:00Z,30.3085,-88.1395,0.0,5.95,226.7,-999.0,'1111122,1111122,1111122' 
DISL,ioos:station:DISL:CATA:1,2017-02-01T06:30:00Z,30.3085,-88.1395,0.0,6.19,224.2,-999.0,'1111122,1111122,1111122' 
DISL,ioos:station:DISL:CATA:1,2017-02-01T07:00:00Z,30.3085,-88.1395,0.0,4.49,232.9,-999.0,'1111122,1111122,1111122' 
DISL,ioos:station:DISL:CATA:1,2017-02-01T07:30:00Z,30.3085,-88.1395,0.0,4.03,236.4,-999.0,'1111122,1111122,1111122' 
DISL,ioos:station:DISL:CATA:1,2017-02-01T08:00:00Z,30.3085,-88.1395,0.0,3.8,233.0,-999.0,'1111122,1111122,1111122' 
DISL,ioos:station:DISL:CATA:1,2017-02-01T08:30:00Z,30.3085,-88.1395,0.0,4.11,227.9,-999.0,'1111122,1111122,1111122' 
DISL,ioos:station:DISL:CATA:1,2017-02-01T09:00:00Z,30.3085,-88.1395,0.0,3.0,229.6,-999.0,'1111122,1111122,1111122' 
DISL,ioos:station:DISL:CATA:1,2017-02-01T09:30:00Z,30.3085,-88.1395,0.0,2.36,242.4,-999.0,'1111122,1111122,1111122' 
DISL,ioos:station:DISL:CATA:1,2017-02-01T10:00:00Z,30.3085,-88.1395,0.0,2.86,233.4,-999.0,'1111122,1111122,1111122' 
DISL,ioos:station:DISL:CATA:1,2017-02-01T10:30:00Z,30.3085,-88.1395,0.0,1.53,180.1,-999.0,'1111122,1111122,1111122' 
DISL,ioos:station:DISL:CATA:1,2017-02-01T11:00:00Z,30.3085,-88.1395,0.0,1.95,222.7,-999.0,'1111122,1111122,1111122' 
DISL,ioos:station:DISL:CATA:1,2017-02-01T11:30:00Z,30.3085,-88.1395,0.0,2.2,228.6,-999.0,'1111122,1111122,1111122' 
DISL,ioos:station:DISL:CATA:1,2017-02-01T12:00:00Z,30.3085,-88.1395,0.0,2.31,220.2,-999.0,'1111122,1111122,1111122' 
DISL,ioos:station:DISL:CATA:1,2017-02-01T12:30:00Z,30.3085,-88.1395,0.0,1.18,208.2,-999.0,'1111122,1111122,1111122' 
DISL,ioos:station:DISL:CATA:1,2017-02-01T13:00:00Z,30.3085,-88.1395,0.0,0.65,179.9,-999.0,'1111122,1111122,1111122' 
DISL,ioos:station:DISL:CATA:1,2017-02-01T13:30:00Z,30.3085,-88.1395,0.0,1.1,167.0,-999.0,'1111122,1111122,1111122' 
DISL,ioos:station:DISL:CATA:1,2017-02-01T14:00:00Z,30.3085,-88.1395,0.0,1.43,122.1,-999.0,'1111122,1111122,1111122' 
DISL,ioos:station:DISL:CATA:1,2017-02-01T14:30:00Z,30.3085,-88.1395,0.0,1.57,117.8,-999.0,'1111122,1111122,1111122' 
DISL,ioos:station:DISL:CATA:1,2017-02-01T15:00:00Z,30.3085,-88.1395,0.0,1.42,109.4,-999.0,'1111122,1111122,1111122' 
DISL,ioos:station:DISL:CATA:1,2017-02-01T15:30:00Z,30.3085,-88.1395,0.0,1.92,118.1,-999.0,'1111122,1111122,1111122' 
DISL,ioos:station:DISL:CATA:1,2017-02-01T16:00:00Z,30.3085,-88.1395,0.0,2.71,135.6,-999.0,'1111122,1111122,1111122' 
DISL,ioos:station:DISL:CATA:1,2017-02-01T16:30:00Z,30.3085,-88.1395,0.0,3.19,141.9,-999.0,'1111122,1111122,1111122' 
DISL,ioos:station:DISL:CATA:1,2017-02-01T17:00:00Z,30.3085,-88.1395,0.0,2.29,146.5,-999.0,'1111122,1111122,1111122' 
DISL,ioos:station:DISL:CATA:1,2017-02-01T17:30:00Z,30.3085,-88.1395,0.0,1.63,172.7,-999.0,'1111122,1111122,1111122' 
DISL,ioos:station:DISL:CATA:1,2017-02-01T18:00:00Z,30.3085,-88.1395,0.0,2.7,176.6,-999.0,'1111122,1111122,1111122' 
DISL,ioos:station:DISL:CATA:1,2017-02-01T18:30:00Z,30.3085,-88.1395,0.0,3.04,179.0,-999.0,'1111122,1111122,1111122' 
DISL,ioos:station:DISL:CATA:1,2017-02-01T19:00:00Z,30.3085,-88.1395,0.0,2.59,193.3,-999.0,'1111122,1111122,1111122' 
DISL,ioos:station:DISL:CATA:1,2017-02-01T19:30:00Z,30.3085,-88.1395,0.0,2.91,191.2,-999.0,'1111122,1111122,1111122' 
DISL,ioos:station:DISL:CATA:1,2017-02-01T20:00:00Z,30.3085,-88.1395,0.0,4.01,186.8,-999.0,'1111122,1111122,1111122' 
DISL,ioos:station:DISL:CATA:1,2017-02-01T20:30:00Z,30.3085,-88.1395,0.0,4.09,186.1,-999.0,'1111122,1111122,1111122' 
DISL,ioos:station:DISL:CATA:1,2017-02-01T21:00:00Z,30.3085,-88.1395,0.0,4.12,184.3,-999.0,'1111122,1111122,1111122' 
DISL,ioos:station:DISL:CATA:1,2017-02-01T21:30:00Z,30.3085,-88.1395,0.0,4.06,183.8,-999.0,'1111122,1111122,1111122' 
DISL,ioos:station:DISL:CATA:1,2017-02-01T22:00:00Z,30.3085,-88.1395,0.0,3.63,181.9,-999.0,'1111122,1111122,1111122' 
DISL,ioos:station:DISL:CATA:1,2017-02-01T22:30:00Z,30.3085,-88.1395,0.0,3.9,179.7,-999.0,'1111122,1111122,1111122' 
DISL,ioos:station:DISL:CATA:1,2017-02-01T23:00:00Z,30.3085,-88.1395,0.0,4.29,183.8,-999.0,'1111122,1111122,1111122' 
DISL,ioos:station:DISL:CATA:1,2017-02-01T23:30:00Z,30.3085,-88.1395,0.0,4.01,172.4,-999.0,'1111122,1111122,1111122' 
DISL,ioos:station:DISL:CATA:1,2017-02-02T00:00:00Z,30.3085,-88.1395,0.0,3.6,170.8,-999.0,'1111122,1111122,1111122' 
DISL,ioos:station:DISL:CATA:1,2017-02-02T00:30:00Z,30.3085,-88.1395,0.0,3.32,164.6,-999.0,'1111122,1111122,1111122' 
DISL,ioos:station:DISL:CATA:1,2017-02-02T01:00:00Z,30.3085,-88.1395,0.0,3.42,166.3,-999.0,'1111122,1111122,1111122' 
DISL,ioos:station:DISL:CATA:1,2017-02-02T01:30:00Z,30.3085,-88.1395,0.0,3.39,171.2,-999.0,'1111122,1111122,1111122' 
DISL,ioos:station:DISL:CATA:1,2017-02-02T02:00:00Z,30.3085,-88.1395,0.0,3.91,175.9,-999.0,'1111122,1111122,1111122' 
DISL,ioos:station:DISL:CATA:1,2017-02-02T02:30:00Z,30.3085,-88.1395,0.0,4.54,178.0,-999.0,'1111122,1111122,1111122' 
DISL,ioos:station:DISL:CATA:1,2017-02-02T03:00:00Z,30.3085,-88.1395,0.0,3.96,174.9,-999.0,'1111122,1111122,1111122' 
DISL,ioos:station:DISL:CATA:1,2017-02-02T03:30:00Z,30.3085,-88.1395,0.0,3.39,175.1,-999.0,'1111122,1111122,1111122' 
DISL,ioos:station:DISL:CATA:1,2017-02-02T04:00:00Z,30.3085,-88.1395,0.0,4.05,177.4,-999.0,'1111122,1111122,1111122' 
DISL,ioos:station:DISL:CATA:1,2017-02-02T04:30:00Z,30.3085,-88.1395,0.0,4.43,183.8,-999.0,'1111122,1111122,1111122' 
DISL,ioos:station:DISL:CATA:1,2017-02-02T05:00:00Z,30.3085,-88.1395,0.0,3.46,194.0,-999.0,'1111122,1111122,1111122' 
DISL,ioos:station:DISL:CATA:1,2017-02-02T05:30:00Z,30.3085,-88.1395,0.0,3.16,198.5,-999.0,'1111122,1111122,1111122' 
DISL,ioos:station:DISL:CATA:1,2017-02-02T06:00:00Z,30.3085,-88.1395,0.0,2.41,196.6,-999.0,'1111122,1111122,1111122' 
DISL,ioos:station:DISL:CATA:1,2017-02-02T06:30:00Z,30.3085,-88.1395,0.0,2.48,183.9,-999.0,'1111122,1111122,1111122' 
DISL,ioos:station:DISL:CATA:1,2017-02-02T07:00:00Z,30.3085,-88.1395,0.0,2.93,184.4,-999.0,'1111122,1111122,1111122' 
DISL,ioos:station:DISL:CATA:1,2017-02-02T07:30:00Z,30.3085,-88.1395,0.0,3.29,182.3,-999.0,'1111122,1111122,1111122' 
DISL,ioos:station:DISL:CATA:1,2017-02-02T08:00:00Z,30.3085,-88.1395,0.0,2.43,169.7,-999.0,'1111122,1111122,1111122' 
DISL,ioos:station:DISL:CATA:1,2017-02-02T08:30:00Z,30.3085,-88.1395,0.0,1.82,162.7,-999.0,'1111122,1111122,1111122' 
DISL,ioos:station:DISL:CATA:1,2017-02-02T09:00:00Z,30.3085,-88.1395,0.0,1.72,162.7,-999.0,'1111122,1111122,1111122' 
DISL,ioos:station:DISL:CATA:1,2017-02-02T09:30:00Z,30.3085,-88.1395,0.0,0.0,205.7,-999.0,'1114422,1111122,1111122' 
DISL,ioos:station:DISL:CATA:1,2017-02-02T10:00:00Z,30.3085,-88.1395,0.0,0.0,0.0,-999.0,'1114422,1114422,1111122' 
DISL,ioos:station:DISL:CATA:1,2017-02-02T10:30:00Z,30.3085,-88.1395,0.0,0.3,55.81,-999.0,'1111122,1111122,1111122' 
DISL,ioos:station:DISL:CATA:1,2017-02-02T11:00:00Z,30.3085,-88.1395,0.0,0.92,59.43,-999.0,'1111122,1111122,1111122' 
DISL,ioos:station:DISL:CATA:1,2017-02-02T11:30:00Z,30.3085,-88.1395,0.0,1.16,55.99,-999.0,'1111122,1111122,1111122' 
DISL,ioos:station:DISL:CATA:1,2017-02-02T12:00:00Z,30.3085,-88.1395,0.0,1.46,76.43,-999.0,'1111122,1111122,1111122' 
DISL,ioos:station:DISL:CATA:1,2017-02-02T12:30:00Z,30.3085,-88.1395,0.0,2.22,52.86,-999.0,'1111122,1111122,1111122' 
DISL,ioos:station:DISL:CATA:1,2017-02-02T13:00:00Z,30.3085,-88.1395,0.0,2.38,54.42,-999.0,'1111122,1111122,1111122' 
DISL,ioos:station:DISL:CATA:1,2017-02-02T13:30:00Z,30.3085,-88.1395,0.0,2.2,66.35,-999.0,'1111122,1111122,1111122' 
DISL,ioos:station:DISL:CATA:1,2017-02-02T14:00:00Z,30.3085,-88.1395,0.0,2.12,52.21,-999.0,'1111122,1111122,1111122' 
DISL,ioos:station:DISL:CATA:1,2017-02-02T14:30:00Z,30.3085,-88.1395,0.0,1.73,58.69,-999.0,'1111122,1111122,1111122' 
DISL,ioos:station:DISL:CATA:1,2017-02-02T15:00:00Z,30.3085,-88.1395,0.0,0.99,106.5,-999.0,'1111122,1111122,1111122' 
DISL,ioos:station:DISL:CATA:1,2017-02-02T15:30:00Z,30.3085,-88.1395,0.0,1.7,141.8,-999.0,'1111122,1111122,1111122' 
DISL,ioos:station:DISL:CATA:1,2017-02-02T16:00:00Z,30.3085,-88.1395,0.0,1.51,130.7,-999.0,'1111122,1111122,1111122' 
DISL,ioos:station:DISL:CATA:1,2017-02-02T16:30:00Z,30.3085,-88.1395,0.0,0.03,135.1,-999.0,'1111122,1111122,1111122' 
DISL,ioos:station:DISL:CATA:1,2017-02-02T17:00:00Z,30.3085,-88.1395,0.0,1.58,228.0,-999.0,'1111122,1111122,1111122' 
DISL,ioos:station:DISL:CATA:1,2017-02-02T17:30:00Z,30.3085,-88.1395,0.0,0.85,259.7,-999.0,'1111122,1111122,1111122' 
DISL,ioos:station:DISL:CATA:1,2017-02-02T18:00:00Z,30.3085,-88.1395,0.0,1.05,236.9,-999.0,'1111122,1111122,1111122' 
DISL,ioos:station:DISL:CATA:1,2017-02-02T18:30:00Z,30.3085,-88.1395,0.0,1.63,225.7,-999.0,'1111122,1111122,1111122' 
DISL,ioos:station:DISL:CATA:1,2017-02-02T19:00:00Z,30.3085,-88.1395,0.0,1.93,231.9,-999.0,'1111122,1111122,1111122' 
DISL,ioos:station:DISL:CATA:1,2017-02-02T19:30:00Z,30.3085,-88.1395,0.0,3.33,220.7,-999.0,'1111122,1111122,1111122' 
DISL,ioos:station:DISL:CATA:1,2017-02-02T20:00:00Z,30.3085,-88.1395,0.0,3.36,219.8,-999.0,'1111122,1111122,1111122' 
DISL,ioos:station:DISL:CATA:1,2017-02-02T20:30:00Z,30.3085,-88.1395,0.0,3.51,214.3,-999.0,'1111122,1111122,1111122' 
DISL,ioos:station:DISL:CATA:1,2017-02-02T21:00:00Z,30.3085,-88.1395,0.0,3.72,223.0,-999.0,'1111122,1111122,1111122' 
DISL,ioos:station:DISL:CATA:1,2017-02-02T21:30:00Z,30.3085,-88.1395,0.0,4.32,216.6,-999.0,'1111122,1111122,1111122' 
DISL,ioos:station:DISL:CATA:1,2017-02-02T22:00:00Z,30.3085,-88.1395,0.0,4.2,220.4,-999.0,'1111122,1111122,1111122' 
DISL,ioos:station:DISL:CATA:1,2017-02-02T22:30:00Z,30.3085,-88.1395,0.0,4.3,216.4,-999.0,'1111122,1111122,1111122' 
DISL,ioos:station:DISL:CATA:1,2017-02-02T23:00:00Z,30.3085,-88.1395,0.0,3.47,209.3,-999.0,'1111122,1111122,1111122' 
DISL,ioos:station:DISL:CATA:1,2017-02-02T23:30:00Z,30.3085,-88.1395,0.0,2.92,210.2,-999.0,'1111122,1111122,1111122' 
DISL,ioos:station:DISL:CATA:1,2017-02-03T00:00:00Z,30.3085,-88.1395,0.0,3.07,205.1,-999.0,'1111122,1111122,1111122' 
DISL,ioos:station:DISL:CATA:1,2017-02-03T00:30:00Z,30.3085,-88.1395,0.0,3.19,207.5,-999.0,'1111122,1111122,1111122' 
DISL,ioos:station:DISL:CATA:1,2017-02-03T01:00:00Z,30.3085,-88.1395,0.0,3.47,196.1,-999.0,'1111122,1111122,1111122' 
DISL,ioos:station:DISL:CATA:1,2017-02-03T01:30:00Z,30.3085,-88.1395,0.0,3.78,190.8,-999.0,'1111122,1111122,1111122' 
DISL,ioos:station:DISL:CATA:1,2017-02-03T02:00:00Z,30.3085,-88.1395,0.0,4.64,181.5,-999.0,'1111122,1111122,1111122' 
DISL,ioos:station:DISL:CATA:1,2017-02-03T02:30:00Z,30.3085,-88.1395,0.0,3.81,184.0,-999.0,'1111122,1111122,1111122' 
DISL,ioos:station:DISL:CATA:1,2017-02-03T03:00:00Z,30.3085,-88.1395,0.0,3.42,177.8,-999.0,'1111122,1111122,1111122' 
DISL,ioos:station:DISL:CATA:1,2017-02-03T03:30:00Z,30.3085,-88.1395,0.0,3.57,200.4,-999.0,'1111122,1111122,1111122' 
DISL,ioos:station:DISL:CATA:1,2017-02-03T04:00:00Z,30.3085,-88.1395,0.0,3.13,213.5,-999.0,'1111122,1111122,1111122' 
DISL,ioos:station:DISL:CATA:1,2017-02-03T04:30:00Z,30.3085,-88.1395,0.0,3.44,215.1,-999.0,'1111122,1111122,1111122' 
DISL,ioos:station:DISL:CATA:1,2017-02-03T05:00:00Z,30.3085,-88.1395,0.0,2.04,229.6,-999.0,'1111122,1111122,1111122' 
DISL,ioos:station:DISL:CATA:1,2017-02-03T05:30:00Z,30.3085,-88.1395,0.0,1.77,239.8,-999.0,'1111122,1111122,1111122' 
DISL,ioos:station:DISL:CATA:1,2017-02-03T06:00:00Z,30.3085,-88.1395,0.0,0.22,252.5,-999.0,'1111122,1111122,1111122' 
DISL,ioos:station:DISL:CATA:1,2017-02-03T06:30:00Z,30.3085,-88.1395,0.0,0.34,268.4,-999.0,'1111122,1111122,1111122' 
DISL,ioos:station:DISL:CATA:1,2017-02-03T07:00:00Z,30.3085,-88.1395,0.0,0.79,258.0,-999.0,'1111122,1111122,1111122' 
DISL,ioos:station:DISL:CATA:1,2017-02-03T07:30:00Z,30.3085,-88.1395,0.0,1.48,265.0,-999.0,'1111122,1111122,1111122' 
DISL,ioos:station:DISL:CATA:1,2017-02-03T08:00:00Z,30.3085,-88.1395,0.0,1.52,294.9,-999.0,'1111122,1111122,1111122' 
DISL,ioos:station:DISL:CATA:1,2017-02-03T08:30:00Z,30.3085,-88.1395,0.0,1.49,320.9,-999.0,'1111122,1111122,1111122' 
DISL,ioos:station:DISL:CATA:1,2017-02-03T09:00:00Z,30.3085,-88.1395,0.0,2.45,6.135,-999.0,'1111122,1111122,1111122' 
DISL,ioos:station:DISL:CATA:1,2017-02-03T09:30:00Z,30.3085,-88.1395,0.0,1.49,26.39,-999.0,'1111122,1111122,1111122' 
DISL,ioos:station:DISL:CATA:1,2017-02-03T10:00:00Z,30.3085,-88.1395,0.0,1.18,29.24,-999.0,'1111122,1111122,1111122' 
DISL,ioos:station:DISL:CATA:1,2017-02-03T10:30:00Z,30.3085,-88.1395,0.0,1.08,355.8,-999.0,'1111122,1111122,1111122' 
DISL,ioos:station:DISL:CATA:1,2017-02-03T11:00:00Z,30.3085,-88.1395,0.0,1.03,15.72,-999.0,'1111122,1111122,1111122' 
DISL,ioos:station:DISL:CATA:1,2017-02-03T11:30:00Z,30.3085,-88.1395,0.0,2.19,3.022,-999.0,'1111122,1111122,1111122' 
DISL,ioos:station:DISL:CATA:1,2017-02-03T12:00:00Z,30.3085,-88.1395,0.0,1.37,40.33,-999.0,'1111122,1111122,1111122' 
DISL,ioos:station:DISL:CATA:1,2017-02-03T12:30:00Z,30.3085,-88.1395,0.0,1.66,44.99,-999.0,'1111122,1111122,1111122' 
DISL,ioos:station:DISL:CATA:1,2017-02-03T13:00:00Z,30.3085,-88.1395,0.0,0.89,83.0,-999.0,'1111122,1111122,1111122' 
DISL,ioos:station:DISL:CATA:1,2017-02-03T13:30:00Z,30.3085,-88.1395,0.0,3.62,43.54,-999.0,'1111122,1111122,1111122' 
DISL,ioos:station:DISL:CATA:1,2017-02-03T14:00:00Z,30.3085,-88.1395,0.0,3.33,38.59,-999.0,'1111122,1111122,1111122' 
DISL,ioos:station:DISL:CATA:1,2017-02-03T14:30:00Z,30.3085,-88.1395,0.0,2.67,61.69,-999.0,'1111122,1111122,1111122' 
DISL,ioos:station:DISL:CATA:1,2017-02-03T15:00:00Z,30.3085,-88.1395,0.0,3.7,46.99,-999.0,'1111122,1111122,1111122' 
DISL,ioos:station:DISL:CATA:1,2017-02-03T15:30:00Z,30.3085,-88.1395,0.0,5.2,36.39,-999.0,'1111122,1111122,1111122' 
DISL,ioos:station:DISL:CATA:1,2017-02-03T16:00:00Z,30.3085,-88.1395,0.0,3.32,17.83,-999.0,'1111122,1111122,1111122' 
DISL,ioos:station:DISL:CATA:1,2017-02-03T16:30:00Z,30.3085,-88.1395,0.0,4.77,6.147,-999.0,'1111122,1111122,1111122' 
DISL,ioos:station:DISL:CATA:1,2017-02-03T17:00:00Z,30.3085,-88.1395,0.0,3.91,358.7,-999.0,'1111122,1111122,1111122' 
DISL,ioos:station:DISL:CATA:1,2017-02-03T17:30:00Z,30.3085,-88.1395,0.0,5.86,3.929,-999.0,'1111122,1111122,1111122' 
DISL,ioos:station:DISL:CATA:1,2017-02-03T18:00:00Z,30.3085,-88.1395,0.0,5.03,353.3,-999.0,'1111122,1111122,1111122' 
DISL,ioos:station:DISL:CATA:1,2017-02-03T18:30:00Z,30.3085,-88.1395,0.0,4.98,27.45,-999.0,'1111122,1111122,1111122' 
DISL,ioos:station:DISL:CATA:1,2017-02-03T19:00:00Z,30.3085,-88.1395,0.0,4.9,38.3,-999.0,'1111122,1111122,1111122' 
DISL,ioos:station:DISL:CATA:1,2017-02-03T19:30:00Z,30.3085,-88.1395,0.0,6.21,48.2,-999.0,'1111122,1111122,1111122' 
DISL,ioos:station:DISL:CATA:1,2017-02-03T20:00:00Z,30.3085,-88.1395,0.0,6.07,44.47,-999.0,'1111122,1111122,1111122' 
DISL,ioos:station:DISL:CATA:1,2017-02-03T20:30:00Z,30.3085,-88.1395,0.0,5.39,349.7,-999.0,'1111122,1111122,1111122' 
DISL,ioos:station:DISL:CATA:1,2017-02-03T21:00:00Z,30.3085,-88.1395,0.0,6.63,337.5,-999.0,'1111122,1111122,1111122' 
DISL,ioos:station:DISL:CATA:1,2017-02-03T21:30:00Z,30.3085,-88.1395,0.0,5.49,5.413,-999.0,'1111122,1111122,1111122' 
DISL,ioos:station:DISL:CATA:1,2017-02-03T22:00:00Z,30.3085,-88.1395,0.0,6.7,40.43,-999.0,'1111122,1111122,1111122' 
DISL,ioos:station:DISL:CATA:1,2017-02-03T22:30:00Z,30.3085,-88.1395,0.0,7.39,40.21,-999.0,'1111122,1111122,1111122' 
DISL,ioos:station:DISL:CATA:1,2017-02-03T23:00:00Z,30.3085,-88.1395,0.0,6.63,40.55,-999.0,'1111122,1111122,1111122' 
DISL,ioos:station:DISL:CATA:1,2017-02-03T23:30:00Z,30.3085,-88.1395,0.0,4.87,19.93,-999.0,'1111122,1111122,1111122' 
DISL,ioos:station:DISL:CATA:1,2017-02-04T00:00:00Z,30.3085,-88.1395,0.0,6.44,21.3,-999.0,'1111122,1111122,1111122' 
DISL,ioos:station:DISL:CATA:1,2017-02-04T00:30:00Z,30.3085,-88.1395,0.0,5.29,15.0,-999.0,'1111122,1111122,1111122' 
DISL,ioos:station:DISL:CATA:1,2017-02-04T01:00:00Z,30.3085,-88.1395,0.0,4.54,7.617,-999.0,'1111122,1111122,1111122' 
DISL,ioos:station:DISL:CATA:1,2017-02-04T01:30:00Z,30.3085,-88.1395,0.0,3.76,356.7,-999.0,'1111122,1111122,1111122' 
DISL,ioos:station:DISL:CATA:1,2017-02-04T02:00:00Z,30.3085,-88.1395,0.0,3.66,0.209,-999.0,'1111122,1111122,1111122' 
DISL,ioos:station:DISL:CATA:1,2017-02-04T02:30:00Z,30.3085,-88.1395,0.0,4.06,353.6,-999.0,'1111122,1111122,1111122' 
DISL,ioos:station:DISL:CATA:1,2017-02-04T03:00:00Z,30.3085,-88.1395,0.0,4.6,2.21,-999.0,'1111122,1111122,1111122' 
DISL,ioos:station:DISL:CATA:1,2017-02-04T03:30:00Z,30.3085,-88.1395,0.0,4.67,358.5,-999.0,'1111122,1111122,1111122' 
DISL,ioos:station:DISL:CATA:1,2017-02-04T04:00:00Z,30.3085,-88.1395,0.0,5.33,7.908,-999.0,'1111122,1111122,1111122' 
DISL,ioos:station:DISL:CATA:1,2017-02-04T04:30:00Z,30.3085,-88.1395,0.0,5.5,6.585,-999.0,'1111122,1111122,1111122' 
DISL,ioos:station:DISL:CATA:1,2017-02-04T05:00:00Z,30.3085,-88.1395,0.0,4.88,0.81,-999.0,'1111122,1111122,1111122' 
DISL,ioos:station:DISL:CATA:1,2017-02-04T05:30:00Z,30.3085,-88.1395,0.0,3.89,8.02,-999.0,'1111122,1111122,1111122' 
DISL,ioos:station:DISL:CATA:1,2017-02-04T06:00:00Z,30.3085,-88.1395,0.0,5.24,2.417,-999.0,'1111122,1111122,1111122' 
DISL,ioos:station:DISL:CATA:1,2017-02-04T06:30:00Z,30.3085,-88.1395,0.0,4.97,11.43,-999.0,'1111122,1111122,1111122' 
DISL,ioos:station:DISL:CATA:1,2017-02-04T07:00:00Z,30.3085,-88.1395,0.0,4.44,5.636,-999.0,'1111122,1111122,1111122' 
DISL,ioos:station:DISL:CATA:1,2017-02-04T07:30:00Z,30.3085,-88.1395,0.0,4.59,12.69,-999.0,'1111122,1111122,1111122' 
DISL,ioos:station:DISL:CATA:1,2017-02-04T08:00:00Z,30.3085,-88.1395,0.0,8.23,30.56,-999.0,'1111122,1111122,1111122' 
DISL,ioos:station:DISL:CATA:1,2017-02-04T08:30:00Z,30.3085,-88.1395,0.0,9.79,37.51,-999.0,'1111122,1111122,1111122' 
DISL,ioos:station:DISL:CATA:1,2017-02-04T09:00:00Z,30.3085,-88.1395,0.0,9.77,44.73,-999.0,'1111122,1111122,1111122' 
DISL,ioos:station:DISL:CATA:1,2017-02-04T09:30:00Z,30.3085,-88.1395,0.0,9.82,41.63,-999.0,'1111122,1111122,1111122' 
DISL,ioos:station:DISL:CATA:1,2017-02-04T10:00:00Z,30.3085,-88.1395,0.0,9.2,42.88,-999.0,'1111122,1111122,1111122' 
DISL,ioos:station:DISL:CATA:1,2017-02-04T10:30:00Z,30.3085,-88.1395,0.0,9.49,46.8,-999.0,'1111122,1111122,1111122' 
DISL,ioos:station:DISL:CATA:1,2017-02-04T11:00:00Z,30.3085,-88.1395,0.0,9.29,42.92,-999.0,'1111122,1111122,1111122' 
DISL,ioos:station:DISL:CATA:1,2017-02-04T11:30:00Z,30.3085,-88.1395,0.0,8.96,44.96,-999.0,'1111122,1111122,1111122' 
DISL,ioos:station:DISL:CATA:1,2017-02-04T12:00:00Z,30.3085,-88.1395,0.0,8.78,54.71,-999.0,'1111122,1111122,1111122' 
DISL,ioos:station:DISL:CATA:1,2017-02-04T12:30:00Z,30.3085,-88.1395,0.0,8.75,54.1,-999.0,'1111122,1111122,1111122' 
DISL,ioos:station:DISL:CATA:1,2017-02-04T13:00:00Z,30.3085,-88.1395,0.0,8.63,60.2,-999.0,'1111122,1111122,1111122' 
DISL,ioos:station:DISL:CATA:1,2017-02-04T13:30:00Z,30.3085,-88.1395,0.0,8.97,54.62,-999.0,'1111122,1111122,1111122' 
DISL,ioos:station:DISL:CATA:1,2017-02-04T14:00:00Z,30.3085,-88.1395,0.0,8.39,56.33,-999.0,'1111122,1111122,1111122' 
DISL,ioos:station:DISL:CATA:1,2017-02-04T14:30:00Z,30.3085,-88.1395,0.0,7.19,57.76,-999.0,'1111122,1111122,1111122' 
DISL,ioos:station:DISL:CATA:1,2017-02-04T15:00:00Z,30.3085,-88.1395,0.0,7.37,52.96,-999.0,'1111122,1111122,1111122' 
DISL,ioos:station:DISL:CATA:1,2017-02-04T15:30:00Z,30.3085,-88.1395,0.0,6.24,49.0,-999.0,'1111122,1111122,1111122' 
DISL,ioos:station:DISL:CATA:1,2017-02-04T16:00:00Z,30.3085,-88.1395,0.0,5.47,36.67,-999.0,'1111122,1111122,1111122' 
DISL,ioos:station:DISL:CATA:1,2017-02-04T16:30:00Z,30.3085,-88.1395,0.0,5.18,42.19,-999.0,'1111122,1111122,1111122' 
DISL,ioos:station:DISL:CATA:1,2017-02-04T17:00:00Z,30.3085,-88.1395,0.0,4.98,37.16,-999.0,'1111122,1111122,1111122' 
DISL,ioos:station:DISL:CATA:1,2017-02-04T17:30:00Z,30.3085,-88.1395,0.0,4.69,42.12,-999.0,'1111122,1111122,1111122' 
DISL,ioos:station:DISL:CATA:1,2017-02-04T18:00:00Z,30.3085,-88.1395,0.0,4.53,47.46,-999.0,'1111122,1111122,1111122' 
DISL,ioos:station:DISL:CATA:1,2017-02-04T18:30:00Z,30.3085,-88.1395,0.0,3.68,51.2,-999.0,'1111122,1111122,1111122' 
DISL,ioos:station:DISL:CATA:1,2017-02-04T19:00:00Z,30.3085,-88.1395,0.0,3.27,55.2,-999.0,'1111122,1111122,1111122' 
DISL,ioos:station:DISL:CATA:1,2017-02-04T19:30:00Z,30.3085,-88.1395,0.0,2.85,72.6,-999.0,'1111122,1111122,1111122' 
DISL,ioos:station:DISL:CATA:1,2017-02-04T20:00:00Z,30.3085,-88.1395,0.0,2.07,72.26,-999.0,'1111122,1111122,1111122' 
DISL,ioos:station:DISL:CATA:1,2017-02-04T20:30:00Z,30.3085,-88.1395,0.0,1.9,89.3,-999.0,'1111122,1111122,1111122' 
DISL,ioos:station:DISL:CATA:1,2017-02-04T21:00:00Z,30.3085,-88.1395,0.0,2.22,100.6,-999.0,'1111122,1111122,1111122' 
DISL,ioos:station:DISL:CATA:1,2017-02-04T21:30:00Z,30.3085,-88.1395,0.0,2.28,106.9,-999.0,'1111122,1111122,1111122' 
DISL,ioos:station:DISL:CATA:1,2017-02-04T22:00:00Z,30.3085,-88.1395,0.0,2.03,134.7,-999.0,'1111122,1111122,1111122' 
DISL,ioos:station:DISL:CATA:1,2017-02-04T22:30:00Z,30.3085,-88.1395,0.0,2.44,176.2,-999.0,'1111122,1111122,1111122' 
DISL,ioos:station:DISL:CATA:1,2017-02-04T23:00:00Z,30.3085,-88.1395,0.0,1.92,188.3,-999.0,'1111122,1111122,1111122' 
DISL,ioos:station:DISL:CATA:1,2017-02-04T23:30:00Z,30.3085,-88.1395,0.0,2.25,196.4,-999.0,'1111122,1111122,1111122' 
DISL,ioos:station:DISL:CATA:1,2017-02-05T00:00:00Z,30.3085,-88.1395,0.0,2.13,155.3,-999.0,'1111122,1111122,1111122' 
DISL,ioos:station:DISL:CATA:1,2017-02-05T00:30:00Z,30.3085,-88.1395,0.0,2.77,152.6,-999.0,'1111122,1111122,1111122' 
DISL,ioos:station:DISL:CATA:1,2017-02-05T01:00:00Z,30.3085,-88.1395,0.0,2.92,142.3,-999.0,'1111122,1111122,1111122' 
DISL,ioos:station:DISL:CATA:1,2017-02-05T01:30:00Z,30.3085,-88.1395,0.0,3.35,150.9,-999.0,'1111122,1111122,1111122' 
DISL,ioos:station:DISL:CATA:1,2017-02-05T02:00:00Z,30.3085,-88.1395,0.0,3.55,149.5,-999.0,'1111122,1111122,1111122' 
DISL,ioos:station:DISL:CATA:1,2017-02-05T02:30:00Z,30.3085,-88.1395,0.0,3.52,140.6,-999.0,'1111122,1111122,1111122' 
DISL,ioos:station:DISL:CATA:1,2017-02-05T03:00:00Z,30.3085,-88.1395,0.0,2.67,127.2,-999.0,'1111122,1111122,1111122' 
DISL,ioos:station:DISL:CATA:1,2017-02-05T03:30:00Z,30.3085,-88.1395,0.0,0.66,125.4,-999.0,'1111122,1111122,1111122' 
DISL,ioos:station:DISL:CATA:1,2017-02-05T04:00:00Z,30.3085,-88.1395,0.0,0.43,136.8,-999.0,'1111122,1111122,1111122' 
DISL,ioos:station:DISL:CATA:1,2017-02-05T04:30:00Z,30.3085,-88.1395,0.0,0.88,131.3,-999.0,'1111122,1111122,1111122' 
DISL,ioos:station:DISL:CATA:1,2017-02-05T05:00:00Z,30.3085,-88.1395,0.0,1.6,127.0,-999.0,'1111122,1111122,1111122' 
DISL,ioos:station:DISL:CATA:1,2017-02-05T05:30:00Z,30.3085,-88.1395,0.0,1.59,129.8,-999.0,'1111122,1111122,1111122' 